Location: Unspecified
(50.1700°N, 6.8600°E)
Time: 04:22:29
(UTC+00:00)

N. Korean satellite - Pass Details

Date: 27 September 2020
Orbit: 453 x 505 km, 97.2° (Epoch: 21 October)

Event Time Altitude Azimuth Distance (km) Brightness Sun altitude
Rises 04:25:01 0° 23° (NNE) 2,596 10.8 -10.7°
Reaches altitude 10° 04:27:26 10° 38° (NE) 1,699 10.1 -10.3°
Maximum altitude 04:30:25 24° 93° (E) 1,066 9.3 -9.9°
Drops below altitude 10° 04:33:21 10° 149° (SSE) 1,662 9.6 -9.4°
Sets 04:35:41 0° 164° (SSE) 2,525 10.3 -9.0°
